Карточка аэропорта UOOO

Внимание!
Информация на этой странице в стадии наполнения.
Если вы не увидели какой-то информации, или заметили неточность - пожалуйста сообщите нам!
Спасибо!
Команда RU-STAFF
Название аэропортаАлыкель
Название аэропорта (англ.)Alykel
Превышение574 ft. (175 m.)
Координаты69°19.02', 87°19.02'
Высота перехода1200m
Эшелон переходаQFE>744:FL60;744>QFE>717:FL70;717>QFE:FL80
Коды ответчика5401-5427
Зона ОрВДКрасноярск РПИ (UNKL)
Данные METARUOOO 271130Z 18014MPS 0400 0300SE R19/1100N SN BLSN OVC042 M19/M21 Q1019 R19/39//33 NOSIG RMK QFE748/0998
Проноз погоды (TAF)UOOO 270759Z 2709/2809 17011G17MPS 0900 SN BLSN OVC016 TEMPO 2709/2712 18016G21MPS 0300 SN BLSN BECMG 2712/2714 1900 -SN BLSN TEMPO 2714/2722 0900 SN BLSN OVC011 BECMG 2722/2724 18016G21MPS 0500 -SN BLSN
NOTAMshow/hide NOTAM
AWOS   TABLE

Информация о ВПП

ВПП Длина ВПП (м.) Покрытие Курс ВПП Частота ILS
013430Бетон13109.5
193430Бетон193110.3

Диспетчерские позиции

Позывной Наименование органа УВД Частота
UOOO_GNDНорильск - Руление121.700
UOOO_TWRНорильск - Старт118.300
UOOO_APPНорильск - Круг120.400



Спутниковое изображение